1321660828935,182.426
1321660888935,182.807
1321660948935,182.649
1321661008935,182.272
1321661068935,182.313
1321661128935,182.372
1321661188935,182.465
1321661248935,182.131
1321661308935,182.600
1321661368935,182.189
1321661428935,182.025
1321661488935,183.080
1321661548935,182.470
1321661608935,182.683
1321661668935,182.930
1321661728935,182.936
1321661788935,183.066
1321661848935,182.720
1321661908935,182.575
1321661968935,182.197
1321662028935,182.255
1321662088935,182.376
1321662148935,182.211
1321662208935,182.127
1321662268935,181.944
1321662328935,182.021
1321662388935,181.948
1321662448935,181.985
1321662508935,182.633
1321662568935,182.369
1321662628935,182.339
1321662688935,182.250
1321662748935,182.469
1321662808935,182.218
1321662868935,182.287
1321662928935,182.425
1321662988935,182.349
1321663048935,182.470
1321663108935,182.596
1321663168935,182.183
1321663228935,182.088
1321663288935,182.695
1321663348935,182.513
1321663408935,182.192
1321663468935,182.658
1321663528935,182.575
1321663588935,182.490
1321663648935,182.537
1321663708935,182.550
1321663768935,182.378
1321663828935,182.746
1321663888935,182.517
1321663948935,182.403
1321664008935,182.717
1321664068935,182.388
1321664128935,182.409
1321664188935,182.046
1321664248935,182.619
1321664308935,181.995
1321664368935,182.660
1321664428945,182.294
1321664488945,182.700
1321664548945,182.558
1321664608945,182.872
1321664668945,182.318
1321664728945,182.534
1321664788945,182.547
1321664848945,182.556
1321664908945,182.926
1321664968945,182.701
1321665028945,182.515
1321665088945,182.614
1321665148945,182.569
1321665208945,182.605
1321665268945,182.386
1321665328945,182.677
1321665388945,182.767
1321665448945,182.476
1321665508945,182.655
1321665568945,182.535
1321665628945,182.385
1321665688945,182.260
1321665748945,183.063
1321665808945,182.591
1321665868945,182.654
1321665928945,182.714
1321665988945,182.630
1321666048945,182.285
1321666108945,181.921
1321666168945,181.874
1321666228945,181.971
1321666288945,182.091
1321666348945,181.928
1321666408945,182.183
1321666468945,182.175
1321666528945,182.329
1321666588945,182.178
1321666648945,181.847
1321666708945,182.024
1321666768945,182.128
1321666828945,182.078
1321666888945,182.064
1321666948945,182.060
1321667008945,182.050
1321667068945,182.177
1321667128945,182.204
1321667188945,181.840
1321667248945,181.408
1321667308945,182.341
1321667368945,181.783
1321667428945,181.942
1321667488945,181.698
1321667548945,181.929
1321667608945,181.807
1321667668945,181.488
1321667728945,181.714
1321667788945,181.747
1321667848945,181.985
1321667908945,181.632
1321667968945,181.536
1321668028955,181.412
1321668088955,181.675
1321668148955,181.861
1321668208955,181.521
1321668268955,181.708
1321668328955,181.767
1321668388955,181.578
1321668448955,181.837
1321668508955,181.694
1321668568955,181.911
1321668628955,181.824
1321668688955,181.789
1321668748955,181.698
1321668808955,181.617
1321668868955,181.986
1321668928955,181.958
1321668988955,182.240
1321669048955,181.609
1321669108955,182.002
1321669168955,181.802
1321669228955,181.985
1321669288955,181.788
1321669348955,181.680
1321669408955,181.256
1321669468955,181.760
1321669528955,181.750
1321669588955,181.304
1321669648955,181.739
1321669708955,181.619
1321669768955,181.584
1321669828955,181.701
1321669888955,181.520
1321669948955,181.780
1321670008955,181.350
1321670068955,181.677
1321670128955,181.864
1321670188955,181.553
1321670248955,181.405
1321670308955,181.356
1321670368955,181.560
1321670428955,181.656
1321670488955,181.581
1321670548955,181.923
1321670608955,181.619
1321670668955,181.475
1321670728955,181.663
1321670788955,181.683
1321670848955,181.333
1321670908955,181.402
1321670968955,181.246
1321671028955,181.668
1321671088955,181.036
1321671148955,181.425
1321671208955,181.546
1321671268955,181.581
1321671328955,181.582
1321671388955,181.695
1321671448955,181.451
1321671508955,181.574
1321671568955,181.422
1321671628965,181.710
1321671688965,181.833
1321671748965,181.359
1321671808965,181.281
1321671868965,181.706
1321671928965,181.818
1321671988965,181.625
1321672048965,181.510
1321672108965,181.750
1321672168965,181.586
1321672228965,181.640
1321672288965,181.812
1321672348965,181.780
1321672408965,181.270
1321672468965,181.716
1321672528965,181.724
1321672588965,181.985
1321672648965,181.428
1321672708965,181.863
1321672768965,181.890
1321672828965,181.683
1321672888965,181.711
1321672948965,182.098
1321673008965,182.037
1321673068965,181.978
1321673128965,181.600
1321673188965,182.027
1321673248965,181.922
1321673308965,182.139
1321673368965,181.641
1321673428965,181.994
1321673488965,182.067
1321673548965,182.072
1321673608965,181.961
1321673668965,182.197
1321673728965,182.091
1321673788965,182.125
1321673848965,181.839
1321673908965,181.667
1321673968965,182.114
1321674028965,181.993
1321674088965,181.874
1321674148965,181.908
1321674208965,181.848
1321674268965,182.057
1321674328965,182.086
1321674388965,181.964
1321674448965,181.639
1321674508965,181.973
1321674568965,182.041
1321674628965,182.123
1321674688965,182.189
1321674748965,182.211
1321674808965,181.988
1321674868965,182.256
1321674928965,182.035
1321674988965,182.210
1321675048965,182.325
1321675108965,182.195
1321675168965,182.139
1321675228976,182.530
1321675288976,182.231
1321675348976,182.225
1321675408976,181.893
1321675468976,182.036
1321675528976,182.402
1321675588976,182.044
1321675648976,182.304
1321675708976,182.461
1321675768976,182.495
1321675828976,182.362
1321675888976,182.223
1321675948976,182.094
1321676008976,181.894
1321676068976,182.484
1321676128976,182.281
1321676188976,181.991
1321676248976,182.053
1321676308976,182.303
1321676368976,182.354
1321676428976,182.499
1321676488976,182.114
1321676548976,182.235
1321676608976,182.686
1321676668976,182.498
1321676728976,182.602
1321676788976,182.423
1321676848976,182.385
1321676908976,182.364
1321676968976,182.663
1321677028976,182.388
1321677088976,182.457
1321677148976,182.745
1321677208976,182.499
1321677268976,182.570
1321677328976,182.191
1321677388976,182.480
1321677448976,182.593
1321677508976,182.657
1321677568976,182.554
1321677628976,182.829
1321677688976,182.626
1321677748976,182.630
1321677808976,182.617
1321677868976,182.709
1321677928976,182.745
1321677988976,182.684
1321678048976,182.737
1321678108976,182.900
1321678168976,182.575
1321678228976,182.407
1321678288976,182.519
1321678348976,182.622
1321678408976,182.564
1321678468976,182.506
1321678528976,182.616
1321678588976,182.587
1321678648976,182.894
1321678708976,182.605
1321678768976,182.845
1321678828986,182.620
1321678888986,182.581
1321678948986,182.657
1321679008986,182.423
1321679068986,182.548
1321679128986,182.781
1321679188986,182.470
1321679248986,182.573
1321679308986,182.749
1321679368986,182.837
1321679428986,182.585
1321679488986,182.426
1321679548986,182.806
1321679608986,182.638
1321679668986,182.360
1321679728986,182.556
1321679788986,182.248
1321679848986,182.377
1321679908986,182.610
1321679968986,182.553
1321680028986,182.574
1321680088986,182.214
1321680148986,182.753
1321680208986,182.627
1321680268986,182.720
1321680328986,182.650
1321680388986,182.665
1321680448986,182.580
1321680508986,182.777
1321680568986,182.830
1321680628986,182.375
1321680688986,182.535
1321680748986,182.548
1321680808986,182.596
1321680868986,182.494
1321680928986,182.580
1321680988986,182.476
1321681048986,182.738
1321681108986,182.602
1321681168986,182.182
1321681228986,182.788
1321681288986,182.561
1321681348986,182.430
1321681408986,182.554
1321681468986,182.387
1321681528986,182.356
1321681588986,182.186
1321681648986,182.171
1321681708986,182.054
1321681768986,181.943
1321681828986,182.306
1321681888986,182.183
1321681948986,182.225
1321682008986,182.187
1321682068986,182.321
1321682128986,182.396
1321682188986,182.181
1321682248986,182.205
1321682308986,181.922
1321682368986,182.262
1321682428996,181.981
1321682488996,181.913
1321682548996,181.804
1321682608996,181.931
1321682668996,182.296
1321682728996,182.188
1321682788996,182.087
1321682848996,181.833
1321682908996,181.865
1321682968996,182.254
1321683028996,181.913
1321683088996,181.961
1321683148996,182.057
1321683208996,182.396
1321683268996,182.084
1321683328996,181.861
1321683388996,181.988
1321683448996,182.283
1321683508996,182.391
1321683568996,182.262
1321683628996,182.115
1321683688996,182.351
1321683748996,182.301
1321683808996,181.979
1321683868996,182.260
1321683928996,181.876
1321683988996,182.146
1321684048996,181.990
1321684108996,181.802
1321684168996,182.018
1321684228996,181.955
1321684288996,181.959
1321684348996,182.063
1321684408996,182.319
1321684468996,182.201
1321684528996,182.093
1321684588996,182.003
1321684648996,182.283
1321684708996,182.127
1321684768996,182.069
1321684828996,182.436
1321684888996,182.140
1321684948996,182.097
1321685008996,182.290
1321685068996,182.109
1321685128996,182.106
1321685188996,182.329
1321685248996,182.220
1321685308996,182.513
1321685368996,182.462
1321685428996,182.678
1321685488996,182.356
1321685548996,182.242
1321685608996,182.251
1321685668996,182.282
1321685728996,182.488
1321685788996,182.539
1321685848996,182.253
1321685908996,182.389
1321685968996,182.116
1321686029007,182.470
1321686089007,182.425
1321686149007,182.774
1321686209007,182.425
1321686269007,182.569
1321686329007,182.463
1321686389007,182.557
1321686449007,182.585
1321686509007,182.621
1321686569007,182.679
1321686629007,182.608
1321686689007,182.395
1321686749007,182.183
1321686809007,182.732
1321686869007,182.782
1321686929007,182.665
1321686989007,182.440
1321687049007,182.405
1321687109007,182.384
1321687169007,182.384
1321687229007,182.399
1321687289007,182.479
1321687349007,182.754
1321687409007,182.495
1321687469007,182.977
1321687529007,182.832
1321687589007,182.455
1321687649007,182.457
1321687709007,182.361
1321687769007,182.571
1321687829007,182.326
1321687889007,182.707
1321687949007,182.757
1321688009007,182.766
1321688069007,182.709
1321688129007,182.464
1321688189007,182.553
1321688249007,182.674
1321688309007,182.450
1321688369007,182.456
1321688429007,182.567
1321688489007,182.777
1321688549007,182.647
1321688609007,182.653
1321688669007,183.183
1321688729007,182.476
1321688789007,182.701
1321688849007,183.023
1321688909007,182.794
1321688969007,183.422
1321689029007,183.040
1321689089007,183.113
1321689149007,183.243
1321689209007,183.380
1321689269007,183.233
1321689329007,183.354
1321689389007,183.314
1321689449007,183.399
1321689509007,183.429
1321689569007,183.442
1321689629018,183.439
1321689689018,183.322
1321689749018,183.297
1321689809018,183.458
1321689869018,183.698
1321689929018,183.384
1321689989018,183.706
1321690049018,183.203
1321690109018,183.331
1321690169018,183.486
1321690229018,183.467
1321690289018,183.668
1321690349018,183.245
1321690409018,183.492
1321690469018,183.252
1321690529018,183.410
1321690589018,183.399
1321690649018,183.815
1321690709018,183.747
1321690769018,183.468
1321690829018,183.388
1321690889018,183.553
1321690949018,183.750
1321691009018,183.521
1321691069018,183.461
1321691129018,183.254
1321691189018,183.606
1321691249018,183.435
1321691309018,183.688
1321691369018,183.564
1321691429018,183.315
1321691489018,183.406
1321691549018,183.617
1321691609018,183.439
1321691669018,183.527
1321691729018,183.853
1321691789018,183.798
1321691849018,183.595
1321691909018,183.736
1321691969018,184.044
1321692029018,183.647
1321692089018,183.879
1321692149018,183.905
1321692209018,184.173
1321692269018,183.670
1321692329018,183.609
1321692389018,183.946
1321692449018,183.977
1321692509018,183.879
1321692569018,183.902
1321692629018,183.768
1321692689018,184.023
1321692749018,183.801
1321692809018,183.788
1321692869018,183.942
1321692929018,184.098
1321692989018,183.803
1321693049018,183.555
1321693109018,183.920
1321693169018,183.924
1321693229029,183.781
1321693289029,184.047
1321693349029,183.921
1321693409029,183.551
1321693469029,184.130
1321693529029,183.931
1321693589029,183.833
1321693649029,184.240
1321693709029,183.949
1321693769029,184.000
1321693829029,183.924
1321693889029,184.436
1321693949029,183.831
1321694009029,184.074
1321694069029,183.763
1321694129029,184.877
1321694189029,183.966
1321694249029,183.910
1321694309029,183.870
1321694369029,183.722
1321694429029,183.914
1321694489029,184.187
1321694549029,184.228
1321694609029,183.935
1321694669029,183.838
1321694729029,183.764
1321694789029,184.199
1321694849029,183.986
1321694909029,184.126
1321694969029,183.532
1321695029029,184.053
1321695089029,183.788
1321695149029,184.343
1321695209029,183.765
1321695269029,183.752
1321695329029,183.991
1321695389029,183.932
1321695449029,183.989
1321695509029,183.796
1321695569029,183.959
1321695629029,184.074
1321695689029,184.273
1321695749029,183.865
1321695809029,184.088
1321695869029,184.027
1321695929029,184.170
1321695989029,183.863
1321696049029,183.283
1321696109029,183.200
1321696169029,183.769
1321696229029,183.419
1321696289029,183.388
1321696349029,183.246
1321696409029,183.554
1321696469029,183.351
1321696529029,183.730
1321696589029,183.651
1321696649029,183.394
1321696709029,183.397
1321696769029,183.701
1321696829040,183.368
1321696889040,183.780
1321696949040,183.664
1321697009040,183.564
1321697069040,183.559
1321697129040,183.576
1321697189040,183.675
1321697249040,183.587
1321697309040,183.641
1321697369040,183.819
1321697429040,183.776
1321697489040,183.573
1321697549040,183.714
1321697609040,183.717
1321697669040,183.592
1321697729040,183.698
1321697789040,183.728
1321697849040,183.486
1321697909040,183.483
1321697969040,183.240
1321698029040,183.884
1321698089040,183.282
1321698149040,183.431
1321698209040,183.593
1321698269040,183.407
1321698329040,183.512
1321698389040,183.297
1321698449040,183.305
1321698509040,183.408
1321698569040,183.803
1321698629040,183.419
1321698689040,183.473
1321698749040,183.657
1321698809040,183.646
1321698869040,183.466
1321698929040,183.334
1321698989040,183.766
1321699049040,183.726
1321699109040,183.632
1321699169040,183.528
1321699229040,183.597
1321699289040,183.544
1321699349040,183.800
1321699409040,183.607
1321699469040,183.541
1321699529040,183.374
1321699589040,183.975
1321699649040,183.701
1321699709040,184.182
1321699769040,183.918
1321699829040,183.615
1321699889040,183.623
1321699949040,183.678
1321700009040,183.780
1321700069040,183.586
1321700129040,183.899
1321700189040,183.853
1321700249040,184.086
1321700309040,183.695
1321700369040,183.505
1321700429052,183.355
1321700489052,183.770
1321700549052,183.661
1321700609052,183.638
1321700669052,183.892
1321700729052,183.646
1321700789052,183.830
1321700849052,183.731
1321700909052,183.725
1321700969052,183.658
1321701029052,183.759
1321701089052,183.349
1321701629052,183.416
1321701689052,183.449
1321701749052,183.351
1321701809052,183.743
1321701869052,184.010
1321701929052,183.564
1321701989052,183.522
1321702049052,183.402
1321702109052,183.423
1321702169052,183.425
1321702229052,183.280
1321702289052,183.377
1321702349052,183.693
1321702409052,183.520
1321702469052,183.205
1321702529052,183.289
1321702589052,183.486
1321702649052,182.991
1321702709052,183.447
1321702769052,183.590
1321702829052,183.141
1321702889052,183.342
1321702949052,183.356
1321703009052,183.644
1321703069052,183.536
1321703129052,183.648
1321703189052,183.638
1321703249052,183.368
1321703309052,183.530
1321703369052,183.542
1321703429052,183.476
1321703489052,183.082
1321703549052,183.590
1321703609052,183.225
1321703669052,183.587
1321703729052,183.600
1321703789052,183.431
1321703849052,183.240
1321703909052,183.211
1321703969052,183.215
1321704029064,183.013
1321704089064,183.491
1321704149064,183.503
1321704209064,183.224
1321704269064,183.608
1321704329064,183.212
1321704389064,183.174
1321704449064,183.052
1321704509064,182.966
1321704569064,183.179
1321704629064,182.820
1321704689064,183.038
1321704749064,182.889
1321704809064,182.925
1321704869064,183.425
1321704929064,182.766
1321704989064,182.881
1321705049064,183.044
1321705109064,183.183
1321705169064,183.083
1321705229064,182.955
1321705289064,183.072
1321705349064,183.009
1321705409064,183.150
1321705469064,183.197
1321705529064,182.819
1321705589064,183.211
1321705649064,182.989
1321705709064,183.036
1321705769064,183.278
1321705829064,183.033
1321705889064,182.667
1321705949064,183.152
1321706009064,182.947
1321706069064,182.721
1321706129064,183.045
1321706189064,183.269
1321706249064,182.977
1321706309064,183.060
1321706369064,182.825
1321706429064,183.039
1321706489064,183.044
1321706549064,182.727
1321706609064,183.033
1321706669064,183.097
1321706729064,183.173
1321706789064,183.112
1321706849064,182.948
1321706909064,182.807
1321706969064,183.085
1321707029064,183.265
1321707089064,183.286
1321707149064,183.175
1321707209064,183.033
1321707269064,182.941
1321707329064,183.070
1321707389064,183.154
1321707449064,183.378
1321707509064,183.148
1321707569064,183.013
1321707629076,183.203
1321707689076,183.109
1321707749076,182.923
1321707809076,183.130
1321707869076,182.905
1321707929076,182.909
1321707989076,183.112
1321708049076,182.445
1321708109076,182.886
1321708169076,182.802
1321708229076,182.402
1321708289076,182.551
1321708349076,182.338
1321708409076,182.662
1321708469076,182.706
1321708529076,182.765
1321708589076,182.650
1321708649076,182.659
1321708709076,182.742
1321708769076,182.802
1321708829076,182.588
1321708889076,182.851
1321708949076,182.662
1321709009076,182.618
1321709069076,182.551
1321709129076,182.688
1321709189076,182.871
1321709249076,182.237
1321709309076,182.650
1321709369076,182.884
1321709429076,182.620
1321709489076,182.546
1321709549076,182.863
1321709609076,182.454
1321709669076,182.715
1321709729076,183.041
1321709789076,182.634
1321709849076,182.598
1321709909076,182.524
1321709969076,182.803
1321710029076,182.304
1321710089076,182.844
1321710149076,182.690
1321710209076,182.483
1321710269076,182.954
1321710329076,182.559
1321710389076,182.416
1321710449076,182.381
1321710509076,182.638
1321710569076,182.965
1321710629076,182.539
1321710689076,182.466
1321710749076,182.352
1321710809076,182.516
1321710869076,182.310
1321710929076,182.661
1321710989076,182.517
1321711049076,182.369
1321711109076,182.582
1321711169076,182.301
1321711229088,182.203
1321711289088,182.167
1321711349088,182.493
1321711409088,182.489
1321711469088,182.636
1321711529088,182.226
1321711589088,182.185
1321711649088,182.648
1321711709088,182.406
1321711769088,182.622
1321711829088,182.636
1321711889088,182.044
1321711949088,182.412
1321712009088,182.527
1321712069088,182.395
1321712129088,182.223
1321712189088,183.013
1321712249088,182.699
1321712309088,182.508
1321712369088,182.236
1321712429088,182.463
1321712489088,182.306
1321712549088,182.564
1321712609088,182.466
1321712669088,182.156
1321712729088,182.608
1321712789088,182.751
1321712849088,182.376
1321712909088,182.656
1321712969088,182.540
1321713029088,182.581
1321713089088,182.789
1321713149088,182.698
1321713209088,183.037
1321713269088,182.755
1321713329088,182.768
1321713389088,183.019
1321713449088,182.709
1321713509088,182.746
1321713569088,182.799
1321713629088,183.011
1321713689088,182.696
1321713749088,182.930
1321713809088,182.924
1321713869088,182.524
1321713929088,182.524
1321713989088,182.870
1321714049088,182.839
1321714109088,182.507
1321714169088,183.066
1321714229088,182.490
1321714289088,182.439
1321714349088,182.933
1321714409088,182.645
1321714469088,182.725
1321714529088,183.077
1321714589088,182.628
1321714649088,182.635
1321714709088,182.530
1321714769088,182.498
1321714829100,182.736
1321714889100,182.547
1321714949100,182.522
1321715009100,182.457
1321715069100,182.287
1321715129100,182.284
1321715189100,182.424
1321715249100,181.895
1321715309100,182.219
1321715369100,181.806
1321715429100,182.185
1321715489100,182.096
1321715549100,182.550
1321715609100,182.231
1321715669100,182.092
1321715729100,182.262
1321715789100,182.042
1321715849100,182.358
1321715909100,181.812
1321715969100,181.996
1321716029100,181.994
1321716089100,181.865
1321716149100,181.762
1321716209100,181.428
1321716269100,182.065
1321716329100,181.825
1321716389100,181.992
1321716449100,181.941
1321716509100,181.732
1321716569100,181.960
1321716629100,181.985
1321716689100,182.135
1321716749100,181.837
1321716809100,181.919
1321716869100,181.888
1321716929100,181.969
1321716989100,181.581
1321717049100,182.036
1321717109100,181.894
1321717169100,181.805
1321717229100,182.104
1321717289100,182.083
1321717349100,181.857
1321717409100,182.304
1321717469100,181.682
1321717529100,182.130
1321717589100,182.121
1321717649100,182.215
1321717709100,181.999
1321717769100,181.991
1321717829100,181.960
1321717889100,182.209
1321717949100,182.335
1321718009100,182.343
1321718069100,182.334
1321718129100,182.443
1321718189100,182.345
1321718249100,182.305
1321718309100,182.420
1321718369100,182.406
1321718429113,182.322
1321718489113,182.057
1321718549113,182.176
1321718609113,182.499
1321718669113,182.525
1321718729113,182.379
1321718789113,182.425
1321718849113,182.385
1321718909113,182.266
1321718969113,182.793
1321719029113,182.202
1321719089113,182.363
1321719149113,182.134
1321719209113,182.237
1321719269113,182.647
1321719329113,182.237
1321719389113,182.570
1321719449113,182.343
1321719509113,182.291
1321719569113,182.234
1321719629113,182.645
1321719689113,182.548
1321719749113,182.285
1321719809113,182.435
1321719869113,182.382
1321719929113,182.431
1321719989113,182.450
1321720049113,182.440
1321720109113,182.494
1321720169113,182.619
1321720229113,182.523
1321720289113,182.291
1321720349113,182.327
1321720409113,182.390
1321720469113,182.392
1321720529113,182.178
1321720589113,182.493
1321720649113,182.356
1321720709113,182.385
1321720769113,182.608
1321720829113,182.417
1321720889113,181.955
1321720949113,182.462
1321721009113,182.376
1321721069113,182.272
1321721129113,182.066
1321721189113,182.309
1321721249113,182.426
1321721309113,181.873
1321721369113,181.841
1321721429113,181.908
1321721489113,181.762
1321721549113,181.961
1321721609113,181.861
1321721669113,182.019
1321721729113,181.844
1321721789113,181.561
1321721849113,181.956
1321721909113,181.932
1321721969113,181.527
1321722029125,181.658
1321722089125,182.276
1321722149125,181.883
1321722209125,181.506
1321722269125,181.205
1321722329125,181.418
1321722389125,181.526
1321722449125,181.281
1321722509125,181.447
1321722569125,181.603
1321722629125,181.744
1321722689125,181.337
1321722749125,181.193
1321722809125,181.696
1321722869125,181.632
1321722929125,181.469
1321722989125,181.269
1321723049125,181.364
1321723109125,181.523
1321723169125,181.811
1321723229125,181.515
1321723289125,180.674
1321723349125,181.458
1321723409125,181.272
1321723469125,181.583
1321723529125,181.243
1321723589125,181.273
1321723649125,181.449
1321723709125,181.146
1321723769125,180.757
1321723829125,180.799
1321723889125,181.159
1321723949125,181.075
1321724009125,181.308
1321724069125,180.877
1321724129125,181.190
1321724189125,181.022
1321724249125,180.678
1321724309125,181.172
1321724369125,180.797
1321724429125,180.808
1321724489125,180.910
1321724549125,181.122
1321724609125,180.895
1321724669125,180.584
1321724729125,180.799
1321724789125,180.625
1321724849125,180.806
1321724909125,180.543
1321724969125,180.832
1321725029125,180.903
1321725089125,180.972
1321725149125,180.781
1321725209125,180.943
1321725269125,180.766
1321725329125,180.902
1321725389125,180.687
1321725449125,180.679
1321725509125,181.278
1321725569125,180.676
1321725629136,181.293
1321725689136,181.028
1321725749136,180.885
1321725809136,181.146
1321725869136,181.061
1321725929136,180.798
1321725989136,180.705
1321726049136,181.138
1321726109136,180.555
1321726169136,180.788
1321726229136,180.863
1321726289136,180.947
1321726349136,181.020
1321726409136,180.797
1321726469136,180.504
1321726529136,180.917
1321726589136,180.899
1321726649136,180.722